Location: Fort Collins
(40.5850°N, 105.0840°W)
Time: 20:01:22
(UTC-06:00)

Daily predictions for brighter satellites

Satellite Brightness Start Highest point End
(mag) Time Altitude Azimuth Time Altitude Azimuth Time Altitude Azimuth
Milstar 3 Cent rocket 4.1 20:56:29 10° WSW 21:01:56 30° S 21:11:11 10° SE
USA 32 4.1 20:59:39 10° S 21:04:52 74° E 21:10:07 10° N
Cosmos 1939 Rocket 2.9 21:01:31 10° SSE 21:05:30 76° ENE 21:09:35 10° N
Cosmos 2173 Rocket 4.5 20:59:51 10° N 21:05:42 43° ENE 21:11:36 10° SSE
Cosmos 1076 Rocket 4.0 21:03:24 10° SSE 21:07:29 41° E 21:11:36 10° NNE
Cosmos 614 Rocket 4.4 21:03:11 10° SSW 21:08:23 70° WNW 21:13:35 10° NNE
Cosmos 2227 Rocket 4.0 21:03:18 10° SW 21:08:31 38° WNW 21:13:46 10° N
Cosmos 1242 Rocket 3.3 21:06:18 10° N 21:09:48 38° ENE 21:13:17 10° SSE
ARGOS 4.4 21:06:19 10° ESE 21:10:47 27° ENE 21:15:15 10° N
Cosmos 1605 Rocket 4.5 21:04:55 10° NNW 21:11:08 67° W 21:17:24 10° S
In-Cosmos 22 4.4 21:06:46 10° S 21:12:28 82° W 21:18:17 10° N
Cosmos 1908 3.5 21:11:35 10° N 21:15:22 49° E 21:19:07 10° SSE
Cosmos 1408 Rocket 4.4 21:12:03 10° SSE 21:15:50 31° E 21:19:39 10° NNE
SAR-Lupe-1 4.3 21:13:50 10° SSE 21:17:21 55° ENE 21:20:54 10° N
SL-16 R/B 2.4 21:14:29 10° NNW 21:20:09 73° WSW 21:25:46 10° SSE
USA 234 3.9 21:15:37 10° ENE 21:21:14 30° SE 21:26:47 10° S
KORONAS-FOTON 4.3 21:19:07 10° SSE 21:22:41 39° E 21:26:14 10° NNE
Cosmos 1184 Rocket 4.5 21:19:56 10° SSW 21:23:04 37° WNW 21:26:16 10° N
Cosmos 2221 2.6 21:18:48 10° N 21:23:13 87° E 21:27:36 10° S
Cosmos 1867 3.7 21:19:11 10° SSW 21:24:37 85° WNW 21:30:07 10° NNE
Cosmos 1850 Rocket 4.4 21:20:50 10° SSW 21:25:59 70° WNW 21:31:12 10° NNE
ERS-1 Rocket 3.2 21:22:15 10° SSE 21:27:10 57° ENE 21:32:06 10° N
Tiangong 1 1.6 21:25:16 10° WNW 21:28:02 50° N 21:30:45 10° ENE
Cosmos 1802 Rocket 4.1 21:27:22 10° N 21:33:26 61° E 21:39:31 10° SSE
Spot 1 4.4 21:29:41 10° S 21:33:44 61° WSW 21:37:57 10° NNW
Abrixas 3.4 21:36:08 10° SSW 21:38:21 23° SE 21:40:34 10° E
Atlas Centaur 2 3.4 21:38:09 10° SSW 21:38:29 10° SSW 21:38:50 10° SSW
CZ-4B DEB 3.6 21:37:45 10° S 21:40:35 44° W 21:43:27 10° NNW
Okean 3 Rocket 4.5 21:41:22 10° SSW 21:45:45 52° W 21:50:08 10° N
NOAA 11 4.2 21:43:55 11° SSE 21:49:11 83° ENE 21:54:39 10° NNW
Helios 1B rocket 3.9 21:46:20 10° N 21:50:13 39° WNW 21:54:04 10° SW
H-2A R/B 2.8 21:48:33 16° SE 21:52:26 40° ENE 21:57:29 10° N
Cosmos 1766 Rocket 3.5 21:49:49 10° S 21:54:08 88° W 21:58:31 10° N
YAOGAN 6 3.9 21:50:46 10° SSW 21:54:10 38° W 21:57:38 10° NNW
Cosmos 2227 4.3 21:51:01 10° SSW 21:56:45 84° WNW 22:02:30 10° NNE
Cosmos 2016 Rocket 4.0 21:50:49 10° N 21:57:05 79° E 22:02:38 13° S
ERBS 3.0 21:53:50 10° NNW 21:57:06 45° NE 21:59:06 20° ESE
Cosmos 1328 Rocket 3.9 21:54:10 10° N 21:58:23 49° E 22:01:02 21° SSE
Cosmos 1626 3.8 21:58:40 16° E 21:59:20 17° E 22:01:48 10° NE
MetOp-B 4.1 21:55:36 14° SSE 22:00:20 88° ENE 22:05:44 10° NNW
Cosmos 1151 Rocket 4.1 21:57:34 10° NNE 22:01:25 29° ENE 22:03:28 20° ESE
Cosmos 371 Rocket 3.5 21:58:05 10° NNW 22:02:51 60° ENE 22:05:56 22° SE
Cosmos 1726 2.0 22:00:05 10° N 22:03:46 78° E 22:06:02 22° SSE
Cosmos 1515 Rocket 4.1 22:01:30 10° N 22:05:38 42° ENE 22:07:50 24° SE
USA 245 3.2 22:05:26 24° SSE 22:07:29 76° ENE 22:11:49 10° N
GPS 2-05 Rocket1 3.8 22:05:10 10° SW 22:07:28 24° S 22:07:28 24° S
Delta 2 Rocket 4.5 22:04:01 10° SW 22:09:23 43° SSE 22:13:58 14° E
H-2A R/B 3.8 22:07:51 15° E 22:09:41 19° ENE 22:12:40 10° NNE
Cosmos 1743 Rocket 3.6 22:07:01 18° S 22:10:04 60° E 22:14:20 10° NNE
YAOGAN 11 4.1 22:09:43 20° SSE 22:12:48 88° ENE 22:17:23 10° NNW
Cosmos 1356 4.2 22:12:09 29° SE 22:13:00 33° E 22:16:11 10° NNE
Cosmos 1300 2.6 22:10:05 10° N 22:13:56 79° E 22:15:58 26° SSE
Cosmos 2263 Rocket 2.4 22:10:47 14° S 22:15:20 48° ESE 22:20:42 10° NE
ATLAS 5 CENTAUR R/B 4.5 22:14:15 10° W 22:18:04 23° NW 22:22:11 10° NNE
SPOT 5 2.9 22:14:52 20° SSE 22:18:16 85° WSW 22:23:25 10° NNW
Abrixas rocket 2.3 22:16:07 10° WNW 22:19:22 70° NNE 22:20:36 34° ESE
Cosmos 2228 Rocket 3.1 22:14:55 10° N 22:19:32 79° E 22:22:09 25° SSE
Lacrosse 5 2.0 22:14:33 10° NW 22:19:35 67° SW 22:22:21 26° SSE
Cosmos 2233 Rocket 4.3 22:14:47 10° N 22:20:50 52° ENE 22:24:21 24° SE
SL-14 R/B 3.3 22:20:14 17° SSW 22:23:14 79° W 22:27:12 10° N
Cosmos 1814 Rocket 4.0 22:19:55 10° NNW 22:25:17 81° WSW 22:28:28 25° SSE
Cosmos 2058 3.3 22:24:03 31° SE 22:25:35 46° E 22:29:39 10° NNE
RESURS DK-1 3.2 22:25:33 10° NW 22:29:31 44° WSW 22:31:40 23° SSW
Cosmos 220 Rocket 4.5 22:26:02 10° SSW 22:30:24 62° WNW 22:34:46 10° NNE
Nimbus 7 Rocket 4.4 22:25:43 10° NNE 22:31:46 85° ESE 22:37:10 13° SSW
Cosmos 841 Rocket 3.5 22:27:33 10° NNW 22:32:48 72° ENE 22:35:19 31° SSE
Landsat 7 3.9 22:30:44 30° SE 22:32:58 65° ENE 22:37:41 10° N
Cosmos 1763 Rocket 3.4 22:28:17 10° NNW 22:33:25 87° WSW 22:36:00 30° SSE
Cosmos 1486 Rocket 4.0 22:28:21 10° SSW 22:33:37 86° WNW 22:38:57 10° NNE
SL-08 RB Rocket 4.0 22:32:00 23° S 22:34:44 63° W 22:39:20 10° NNW
Cosmos 1328 4.3 22:31:45 16° SSW 22:34:51 58° W 22:38:51 10° N
DMSP B5D2-2 4.0 22:31:43 10° NNE 22:36:55 66° ESE 22:39:49 26° S
Cosmos 1447 Rocket 4.5 22:38:45 23° S 22:42:58 76° E 22:49:20 10° N
EO 1 Delta rocket 4.2 22:41:51 24° S 22:44:33 60° W 22:49:10 10° NNW
Cosmos 1455 2.8 22:43:19 10° N 22:46:58 39° ENE 22:47:26 37° E
SPOT 1/Viking Rocket 3.8 22:44:44 26° S 22:47:38 62° WSW 22:52:44 10° NNW
Terra 1.9 22:46:09 37° SE 22:47:54 64° ENE 22:52:37 10° N
Cosmos 1844 Rocket 4.2 22:49:03 19° E 22:49:03 19° E 22:52:34 10° ENE
ARGOS 4.2 22:46:58 17° SSW 22:50:48 40° W 22:55:53 10° NNW
Sich 1 4.4 22:51:22 23° E 22:51:22 23° E 22:54:44 10° NE
Cosmos 2151 3.3 22:56:00 28° SSW 22:58:07 62° W 23:02:25 10° N
CZ-4 R/B 4.1 22:53:29 10° NNE 22:58:09 47° E 22:59:01 42° SE
Cosmos 304 Rocket 3.8 22:56:46 10° NNW 23:01:35 71° ENE 23:02:53 47° SE
Cosmos 1943 3.5 22:56:02 10° NNW 23:01:37 61° WSW 23:04:01 33° S
Tiangong 1 2.2 23:00:55 10° WNW 23:02:39 34° WNW 23:02:39 34° WNW
Cosmos 836 Rocket 4.5 22:59:13 10° NNW 23:04:32 78° ENE 23:06:16 44° SSE
USA 234 3.4 22:58:02 10° NE 23:04:34 75° NW 23:11:04 10° WSW
PSLV R/B 4.2 23:06:33 35° NNE 23:06:33 35° NNE 23:08:36 10° N
deb Chang Zheng 4 3.6 23:01:40 10° NNE 23:06:01 63° ESE 23:06:44 54° SSE
Cosmos 1869 4.2 23:03:39 10° N 23:07:16 34° ENE 23:07:20 34° E
Cosmos 1707 Rocket 4.1 23:03:23 10° N 23:07:39 42° ENE 23:08:15 40° E
Cosmos 2285 Rocket 4.0 23:05:38 10° NNW 23:12:01 86° ENE 23:14:33 40° SSE
Abrixas 4.2 23:10:27 10° W 23:11:56 25° WNW 23:11:56 25° WNW
CZ-4C R/B 4.0 23:19:17 45° E 23:19:45 48° ENE 23:24:00 10° N
Cosmos 1503 Rocket 4.3 23:16:52 24° SW 23:19:58 64° WNW 23:25:07 10° NNE
SL-19 R/B 4.2 23:16:22 10° NNE 23:21:45 82° WNW 23:24:18 34° SSW
Spot 4 3.8 23:21:11 54° SE 23:22:13 73° ENE 23:27:05 10° N
CZ-2C R/B 4.0 23:18:23 10° NE 23:22:23 22° E 23:22:23 22° E
Cosmos 1666 Rocket 3.7 23:22:32 55° ESE 23:22:44 56° E 23:27:06 10° NNE
CARTOSAT-1 4.1 23:23:32 41° SW 23:24:26 48° W 23:28:38 10° NNW
Cosmos 1703 4.4 23:23:54 30° WSW 23:25:12 39° WNW 23:28:59 10° N
CZ-4B R/B 3.4 23:23:58 10° NNE 23:29:16 79° ESE 23:30:31 53° S
Cosmos 540 Rocket 3.4 23:24:30 10° NNW 23:29:40 74° WSW 23:30:45 54° S
SME Rocket 3.0 23:30:22 62° E 23:30:39 64° ENE 23:35:14 10° N
H-2A R/B 3.8 23:29:11 17° SW 23:31:56 26° W 23:36:25 10° NW
IGS 5A 4.3 23:32:08 37° WSW 23:32:46 40° W 23:36:43 10° NNW
Cosmos 968 Rocket 3.6 23:32:52 53° SE 23:33:21 55° ESE 23:38:31 10° NNE
Cosmos 1805 Rocket 3.6 23:33:03 60° SW 23:33:40 71° W 23:38:01 10° N
Cosmos 1626 3.9 23:33:18 23° WSW 23:34:27 27° WNW 23:37:40 10° NNW
Cosmos 1633 Rocket 3.0 23:38:01 67° E 23:38:01 67° E 23:42:18 10° NNE
Cosmos 1464 Rocket 3.9 23:35:07 10° N 23:41:19 83° W 23:43:13 47° S
Cosmos 2084 Rocket 3.9 23:39:22 10° NNW 23:42:59 46° NE 23:42:59 46° NE
H-2A R/B 2.9 23:44:58 36° WSW 23:45:26 38° W 23:49:24 10° NNW
CZ-4C R/B 2.0 23:44:59 55° SSW 23:46:12 81° ESE 23:52:06 10° NE
Cosmos 2278 Rocket 3.6 23:47:29 22° E 23:47:29 22° E 23:51:14 10° NE
Delta 2 Rocket 4.4 23:46:17 10° WSW 23:51:00 47° SW 23:51:00 47° SW
Cosmos 1844 3.9 23:54:00 51° ESE 23:54:13 51° ESE 23:59:38 10° NNE
